Time,TemperatureF,DewpointF,PressureIn,WindDirection,WindDirectionDegrees,WindSpeedMPH,WindSpeedGustMPH,Humidity,HourlyPrecipIn,Conditions,Clouds,dailyrainin,SoftwareType,DateUTC
2013-07-09 00:29:00,68.1,57.9,29.80,North,3,3.0,12.0,70,0.00,CLR,,0.00,WeatherDisplay:10.37,2013-07-09 05:29:00,
2013-07-09 00:59:00,67.6,57.9,29.80,NNE,16,2.0,10.0,71,0.00,CLR,,0.00,WeatherDisplay:10.37,2013-07-09 05:59:00,
2013-07-09 01:29:00,66.8,57.9,29.80,NE,44,1.0,10.0,73,0.00,CLR,,0.00,WeatherDisplay:10.37,2013-07-09 06:29:00,
2013-07-09 01:59:00,65.4,57.2,29.81,NE,39,2.0,6.0,75,0.00,CLR,,0.00,WeatherDisplay:10.37,2013-07-09 06:59:00,
2013-07-09 02:29:00,64.7,57.0,29.80,SW,226,3.0,7.0,76,0.00,CLR,,0.00,WeatherDisplay:10.37,2013-07-09 07:29:00,
2013-07-09 02:59:00,63.1,56.5,29.81,SSE,165,0.0,3.0,79,0.00,CLR,,0.00,WeatherDisplay:10.37,2013-07-09 07:59:00,
2013-07-09 03:29:00,61.5,56.0,29.82,SSE,165,0.0,1.0,82,0.00,CLR,,0.00,WeatherDisplay:10.37,2013-07-09 08:29:00,
2013-07-09 03:59:00,60.2,56.0,29.82,SSE,165,0.0,0.0,86,0.00,CLR,,0.00,WeatherDisplay:10.37,2013-07-09 08:59:00,
2013-07-09 04:29:00,59.8,55.3,29.82,SSE,165,0.0,1.0,85,0.00,CLR,,0.00,WeatherDisplay:10.37,2013-07-09 09:29:00,
2013-07-09 04:59:00,59.5,55.3,29.82,SSE,165,0.0,3.0,86,0.00,CLR,,0.00,WeatherDisplay:10.37,2013-07-09 09:59:00,
2013-07-09 05:29:00,59.2,55.3,29.83,SSE,165,0.0,1.0,87,0.00,CLR,,0.00,WeatherDisplay:10.37,2013-07-09 10:29:00,
2013-07-09 05:59:00,58.7,54.9,29.83,SSE,165,0.0,0.0,87,0.00,CLR,,0.00,WeatherDisplay:10.37,2013-07-09 10:59:00,
2013-07-09 06:29:00,58.7,54.8,29.86,SSE,165,0.0,1.0,87,0.00,CLR,,0.00,WeatherDisplay:10.37,2013-07-09 11:29:00,
2013-07-09 06:59:00,58.3,54.8,29.86,SSE,165,0.0,1.0,88,0.00,CLR,,0.00,WeatherDisplay:10.37,2013-07-09 11:59:00,
2013-07-09 07:29:00,58.3,55.1,29.88,SSE,165,0.0,2.0,89,0.00,CLR,,0.00,WeatherDisplay:10.37,2013-07-09 12:29:00,
2013-07-09 07:59:00,59.6,56.0,29.87,SSE,165,0.0,1.0,88,0.00,CLR,,0.00,WeatherDisplay:10.37,2013-07-09 12:59:00,
2013-07-09 08:29:00,61.7,57.8,29.90,SSE,165,0.0,1.0,87,0.00,CLR,,0.00,WeatherDisplay:10.37,2013-07-09 13:29:00,
2013-07-09 08:59:00,65.9,58.1,29.88,SSE,165,0.0,0.0,76,0.00,CLR,,0.00,WeatherDisplay:10.37,2013-07-09 13:59:00,
2013-07-09 09:29:00,71.1,57.4,29.85,ESE,103,0.0,4.0,62,0.00,CLR,,0.00,WeatherDisplay:10.37,2013-07-09 14:29:00,
2013-07-09 09:59:00,73.0,57.3,29.84,ESE,106,2.0,7.0,58,0.00,CLR,,0.00,WeatherDisplay:10.37,2013-07-09 14:59:00,
2013-07-09 10:29:00,74.7,58.0,29.84,NE,37,0.0,6.0,56,0.00,CLR,,0.00,WeatherDisplay:10.37,2013-07-09 15:29:00,
2013-07-09 10:59:00,76.7,56.7,29.83,ENE,59,0.0,7.0,50,0.00,CLR,,0.00,WeatherDisplay:10.37,2013-07-09 15:59:00,
2013-07-09 11:29:00,77.0,55.2,29.84,ENE,76,2.0,7.0,47,0.00,CLR,,0.00,WeatherDisplay:10.37,2013-07-09 16:29:00,
2013-07-09 11:59:00,78.0,54.3,29.84,NE,45,2.0,8.0,44,0.00,CLR,,0.00,WeatherDisplay:10.37,2013-07-09 16:59:00,
2013-07-09 12:29:00,77.7,57.6,29.84,ESE,112,2.0,8.0,50,0.00,CLR,,0.00,WeatherDisplay:10.37,2013-07-09 17:29:00,
2013-07-09 12:59:00,77.3,57.7,29.84,East,99,5.0,10.0,51,0.00,CLR,,0.00,WeatherDisplay:10.37,2013-07-09 17:59:00,
2013-07-09 13:29:00,76.5,58.1,29.86,East,93,5.0,10.0,53,0.00,CLR,,0.00,WeatherDisplay:10.37,2013-07-09 18:29:00,
2013-07-09 13:59:00,77.9,56.6,29.84,ESE,103,0.0,9.0,48,0.00,CLR,,0.00,WeatherDisplay:10.37,2013-07-09 18:59:00,
2013-07-09 14:29:00,78.8,56.9,29.84,South,188,2.0,11.0,47,0.00,CLR,,0.00,WeatherDisplay:10.37,2013-07-09 19:29:00,
2013-07-09 14:59:00,79.6,56.4,29.82,WSW,257,0.0,12.0,45,0.00,CLR,,0.00,WeatherDisplay:10.37,2013-07-09 19:59:00,
2013-07-09 15:29:00,78.6,55.5,29.84,ENE,65,2.0,8.0,45,0.00,CLR,,0.00,WeatherDisplay:10.37,2013-07-09 20:29:00,
2013-07-09 15:59:00,79.8,55.3,29.81,ENE,63,1.0,6.0,43,0.00,CLR,,0.00,WeatherDisplay:10.37,2013-07-09 20:59:00,
2013-07-09 16:29:00,79.8,55.3,29.81,ENE,70,3.0,9.0,43,0.00,CLR,,0.00,WeatherDisplay:10.37,2013-07-09 21:29:00,
2013-07-09 16:59:00,80.3,54.5,29.80,East,84,3.0,13.0,41,0.00,CLR,,0.00,WeatherDisplay:10.37,2013-07-09 21:59:00,
2013-07-09 17:29:00,79.4,54.3,29.79,ENE,75,0.0,9.0,42,0.00,CLR,,0.00,WeatherDisplay:10.37,2013-07-09 22:29:00,
2013-07-09 17:59:00,76.3,55.7,29.82,ENE,75,1.0,7.0,49,0.00,CLR,,0.00,WeatherDisplay:10.37,2013-07-09 22:59:00,
2013-07-09 18:29:00,77.0,54.6,29.82,East,93,1.0,8.0,46,0.00,CLR,,0.00,WeatherDisplay:10.37,2013-07-09 23:29:00,
2013-07-09 18:59:00,69.3,58.7,29.85,SW,229,5.0,16.0,69,0.01,RA,,0.01,WeatherDisplay:10.37,2013-07-09 23:59:00,
2013-07-09 19:29:00,68.6,59.2,29.85,WSW,243,1.0,6.0,72,0.00,CLR,,0.01,WeatherDisplay:10.37,2013-07-10 00:29:00,
2013-07-09 19:59:00,68.9,61.0,29.84,WSW,244,1.0,5.0,76,0.01,RA,,0.02,WeatherDisplay:10.37,2013-07-10 00:59:00,
2013-07-09 20:29:00,71.3,56.2,29.80,SW,225,6.0,14.0,59,0.00,CLR,,0.02,WeatherDisplay:10.37,2013-07-10 01:29:00,
2013-07-09 20:59:00,73.3,57.1,29.78,SW,236,5.0,14.0,57,0.00,CLR,,0.02,WeatherDisplay:10.37,2013-07-10 01:59:00,
2013-07-09 21:29:00,73.0,56.9,29.76,WSW,253,5.0,16.0,57,0.00,CLR,,0.02,WeatherDisplay:10.37,2013-07-10 02:29:00,
2013-07-09 21:59:00,72.0,56.4,29.76,NW,317,2.0,12.0,58,0.00,CLR,,0.02,WeatherDisplay:10.37,2013-07-10 02:59:00,
2013-07-09 22:29:00,71.3,56.7,29.76,WNW,285,2.0,10.0,60,0.00,CLR,,0.02,WeatherDisplay:10.37,2013-07-10 03:29:00,
2013-07-09 22:59:00,71.1,57.4,29.77,West,277,7.0,17.0,62,0.00,CLR,,0.02,WeatherDisplay:10.37,2013-07-10 03:59:00,
2013-07-09 23:29:00,70.5,57.3,29.77,West,261,2.0,17.0,63,0.00,CLR,,0.02,WeatherDisplay:10.37,2013-07-10 04:29:00,
2013-07-09 23:59:00,69.9,57.2,29.78,WNW,290,5.0,20.0,64,0.00,RA,,0.00,WeatherDisplay:10.37,2013-07-10 04:59:00,